20040115,0
20040216,0
20040315,40
20040415,40
20040517,40
20040615,40
20040715,40
20040816,40
20040915,40
20041015,40
20041115,40
20041215,45
20050117,45
20050215,45
20050315,45
20050415,45
20050516,45
20050615,45
20050715,45
20050815,45
20050915,45
20051017,45
20051115,45
20051215,45
20060116,45
20060215,45
20060315,45
20060417,45
20060515,45
20060615,45
20060718,45
20060815,45
20060915,45
20061016,45
20061115,45
20061215,45
20070115,45
20070215,45
20070315,45
20070416,45
20070515,45
20070615,45
20070717,45
20070815,45
20070918,45
20071015,45
20071115,85
20071217,85
20080115,85
20080215,85
20080317,85
20080415,85
20080515,75
20080616,75
20080715,75
20080815,75
20080916,75
20081015,75
20081117,75
20081215,75
20090115,75
20090216,75
20090316,75
20090415,75
20090515,75
20090615,85
20090715,85
20090817,85
20090915,90
20091015,100
20091116,100
20091215,100
20100115,100
20100215,100
20100315,100
20100415,100
20100517,100
20100615,100
20100715,100
20100816,100
20100915,100
20101015,100
20101115,100
20101215,100
20110117,100
20110215,100
20110315,100
20110415,100
20110516,100
20110615,100
20110715,100
20110815,100
20110915,100
20111017,100
20111115,100
20111215,100
20120116,100
20120215,100
20120315,100
20120416,100
20120515,100
20120615,100
20120717,100
20120815,100
20120918,100
20121015,100
20121115,100
20121217,80
20130115,80
20130215,80
20130315,80
20130415,80
20130515,80
20130617,80
20130716,80
20130815,80
20130917,80
20131015,80
20131115,80
20131216,80
20140115,80
20140217,80
20140317,80
20140415,80
20140515,80
20140616,80
20140715,80
20140815,80
20140916,80
20141015,80
20141117,80
20141215,80
20150115,80
20150216,100
20150316,100
20150415,100
20150515,100
20150615,100
20150715,100
20150817,100
20150915,100
20151015,100
20151116,100
20151215,100
20160115,100
20160215,100
20160315,100
20160415,100
20160516,100
20160615,100
20160715,100
20160815,100
20160915,100
20161017,100
20161115,70
20161215,70
20170116,70
20170215,70
20170315,70
20170417,70
20170515,70
20170615,70
20170718,70
20170815,70
20170915,70
20171016,70
20171115,35
20171215,35
20180115,35
20180215,35
20180315,35
20180416,35
20180515,35
20180615,35
20180717,35
20180815,35
20180918,35
20181015,35
20181115,35
20181217,35
20190115,35
20190215,35
20190315,35
20190415,35
20190515,35
20190617,35
20190716,35
20190815,35
20190917,35
20191015,35
20191115,35
20191216,35
20200115,35
20200217,35
20200316,35
20200415,35
20200515,35
20200615,35
20200715,35
20200817,35
20200915,35
20201015,35
20201116,35
20201215,35
20210115,35
20210215,35
20210315,35
20210415,35
20210517,35
20210615,35
20210715,35
20210816,35
20210915,35
20211015,35
20211115,35
20211215,35
20220117,35
20220215,35
20220315,35
20220415,35
20220516,35
20220615,35
20220715,35
20220815,35
20220915,35
20221017,35
20221115,35
20221215,35
20230116,35
20230215,35
20230315,35
20230417,35
20230515,35
20230615,35
20230718,35
20230815,35
20230915,35
20231016,35
20231115,35
20231215,35
20240115,35
20240215,35
20240315,35
20240415,35
